Location: Carrières
(48.9495°N, 2.0407°E)
Time: 10:38:31
(UTC+00:00)

Transit 2A - Pass Details

Date: 23 April 2024
Orbit: 594 x 958 km, 66.7° (Epoch: 24 May)

Event Time Altitude Azimuth Distance (km) Brightness Sun altitude
Rises 13:25:59 0° 325° (NW) 3,219 9.1 48.8°
Reaches altitude 10° 13:28:18 10° 329° (NNW) 2,346 8.5 48.6°
Maximum altitude 13:33:41 63° 50° (NE) 940 6.9 48.0°
Drops below altitude 10° 13:39:36 10° 132° (SE) 2,567 8.8 47.4°
Sets 13:42:15 0° 135° (SE) 3,546 9.5 47.1°
